This is the latest recevied weather packets stored in our database for station/object DL1DH-17. If no packets are shown the sender has not sent any weather packets the latest 10 day(s).
| Time | Temp. | Humidity | Pressure | Rain* | Wind** | Luminosity | Snow |
|---|---|---|---|---|---|---|---|
| 1778202930 | 6.11° C | 87% | 977.8 hPa | - | - | - | - |
| 1778202090 | 6.67° C | 87% | 977.9 hPa | - | - | - | - |
| 1778201250 | 6.67° C | 87% | 978 hPa | - | - | - | - |
| 1778200410 | 6.67° C | 87% | 978.1 hPa | - | - | - | - |
| 1778199570 | 6.67° C | 86% | 978.1 hPa | - | - | - | - |
| 1778198729 | 7.22° C | 86% | 978.1 hPa | - | - | - | - |
| 1778197889 | 6.67° C | 86% | 978.3 hPa | - | - | - | - |
| 1778197049 | 7.22° C | 85% | 978.3 hPa | - | - | - | - |
| 1778196209 | 7.22° C | 86% | 978.2 hPa | - | - | - | - |
| 1778195369 | 7.22° C | 85% | 978.2 hPa | - | - | - | - |
| 1778194529 | 7.78° C | 85% | 978.3 hPa | - | - | - | - |
| 1778193689 | 7.78° C | 84% | 978.3 hPa | - | - | - | - |
| 1778192849 | 8.33° C | 84% | 978.3 hPa | - | - | - | - |
| 1778192009 | 8.33° C | 84% | 978.2 hPa | - | - | - | - |
| 1778191169 | 8.33° C | 84% | 978.1 hPa | - | - | - | - |
| 1778190328 | 7.78° C | 83% | 977.9 hPa | - | - | - | - |
| 1778189488 | 8.33° C | 83% | 977.9 hPa | - | - | - | - |
| 1778188648 | 8.33° C | 82% | 977.8 hPa | - | - | - | - |
| 1778187808 | 8.89° C | 82% | 977.7 hPa | - | - | - | - |
| 1778186968 | 8.89° C | 82% | 977.8 hPa | - | - | - | - |
| 1778186128 | 8.89° C | 81% | 977.6 hPa | - | - | - | - |
| 1778185288 | 9.44° C | 80% | 977.5 hPa | - | - | - | - |
| 1778184448 | 10° C | 79% | 977.4 hPa | - | - | - | - |
| 1778183608 | 10° C | 80% | 977.4 hPa | - | - | - | - |
| 1778182768 | 10° C | 79% | 977.2 hPa | - | - | - | - |
* Rain since midnight (hover to see other rain measurements)
** Current wind speed in m/s (hover to see current wind gust speed)